Back to catalog

STARLINK-30483

AliveCommunicationsVLEO
NORAD 57914·PAYLOAD·🇺🇸 United States

Launched Sep 24, 2023 from Cape Canaveral Space Force Station

Loading…

Next Passes (next 24 hours)

TLE

FreshSource: CelesTrak SupGP

Epoch: Sep 14, 2026, 20:48 UTC

1 57914C 23147B   26257.86715278  .00014242  00000+0  51571-3 0  2570
2 57914  43.0022 191.2561 0001345 262.7288  14.5962 15.27580596    18

Track STARLINK-30483 in real time with AllMySat

Download on the App Store